Home   Weather   Weno   Past weeks

Flag for Micronesia Past Weather in Weno, Truk, Micronesia — Yesterday and Last 2 Weeks

Now
83 °F

Overcast.


Feels Like: 94 °F
Forecast: 80 / 87 °F
Wind: No wind

Location: Truk Intl / Moen Island

Current Time: Jul 22, 2017 at 8:59:31 pm

Latest Report: Jul 22, 2017 at 7:50 pm


Visibility: 15 mi

Pressure: 29.83 "Hg

Humidity: 87%

Dew Point: 79 °F

Location of WenoLocation

Past Weather in Weno — Graph

°F

Weno Temperature Yesterday

Maximum temperature yesterday: 86 °F (at 2:51 am)
Minimum temperature yesterday: 80 °F (at 9:53 pm)
Average temperature yesterday: 83 °F

High & Low Weather Summary for the Past Weeks

 TemperatureHumidityPressure
High92 °F (Jul 18, 12:53 pm)99% (Jul 10, 4:52 am)29.90 "Hg (Jul 10, 4:52 am)
Low76 °F (Jul 10, 6:55 am)61% (Jul 13, 8:51 am)29.72 "Hg (Jul 20, 2:55 am)
Average84 °F85%29.82 "Hg
* Reported Jul 7 6:50 pm — Jul 22 6:50 pm, Weno. Weather by CustomWeather, © 2017

Note: Actual official high and low records may vary slightly from our data, if they occured in-between our weather recording intervals... More about our weather records

Advertising

Weno Weather History for the Previous 24 Hours

Scroll right to see more
 ConditionsComfort  
Time TempWeatherWind HumidityBarometerVisibility
6:50 pm
Sat, Jul 22
85 °FOvercast.3 mph88%29.81 "Hg15 mi
5:50 pm83 °FCloudy.3 mph88%29.79 "Hg15 mi
4:50 pm81 °FCloudy.3 mph94%29.76 "Hg15 mi
3:50 pm81 °FCloudy.3 mph94%29.75 "Hg15 mi
2:50 pm83 °FCloudy.5 mph94%29.75 "Hg15 mi
1:50 pm84 °FCloudy.5 mph96%29.75 "Hg15 mi
12:50 pm83 °FCloudy.5 mph82%29.78 "Hg15 mi
11:52 am82 °FMostly cloudy.5 mph89%29.80 "Hg15 mi
10:50 am80 °FMostly cloudy.5 mph92%29.83 "Hg15 mi
9:50 am79 °FScattered showers. Cloudy.6 mph95%29.86 "Hg14 mi
8:50 am78 °FScattered showers. Cloudy.6 mph98%29.88 "Hg14 mi
7:52 am81 °FCloudy.8 mph90%29.85 "Hg15 mi
6:55 am80 °FLight rain. Mostly cloudy.3 mph90%29.85 "Hg15 mi
5:50 am79 °FMostly cloudy.3 mph87%29.81 "Hg15 mi
4:52 am78 °FPartly cloudy.No wind76%29.80 "Hg15 mi
3:57 am78 °FPartly cloudy.No wind76%29.79 "Hg15 mi
2:54 am81 °FPartly cloudy.No wind81%29.78 "Hg15 mi
1:55 am79 °FMostly cloudy.5 mph83%29.79 "Hg15 mi
12:53 am80 °FSprinkles. Overcast.No wind94%29.80 "Hg14 mi
12:21 am81 °FSprinkles. Mostly cloudy.6 mph94%29.81 "Hg12 mi
11:52 pm
Fri, Jul 21
80 °FRain showers. Mostly cloudy.6 mph94%29.83 "Hg10 mi
10:56 pm80 °FPartly cloudy.5 mph94%29.85 "Hg15 mi
9:53 pm80 °FPartly cloudy.3 mph92%29.85 "Hg15 mi
8:57 pm82 °FMostly cloudy.3 mph79%29.84 "Hg15 mi
Weather by CustomWeather, © 2017

See weather overviewHow to use our weather pages